This demonstration page uses our WeatherBlox Daily Observations layout. Learn more.

Left ArrowRight Arrow

Hourly Observations for December 5, 2019

Temp ( °F °C ) Dew Point ( °F °C ) Humidity (%) Winds ( mph kmh ) Pressure ( in mb ) Visibility ( mi km ) Precip ( " mm )
12:56 am 00:56 Clear 36 2 30 -1 81 81 E 3 6 29.95 1014 10 16 0.00 0.00
1:56 am 01:56 Clear 34 1 30 -1 87 87 Calm 29.94 1014 10 16 0.00 0.00
2:56 am 02:56 Clear 34 1 30 -1 87 87 Calm 29.94 1014 10 16 0.00 0.00
3:56 am 03:56 Clear 32 0 30 -1 93 93 E 3 6 29.94 1014 10 16 0.00 0.00
4:56 am 04:56 Clear 30 -1 28 -2 93 93 ESE 3 6 29.93 1014 10 16 0.00 0.00
5:56 am 05:56 Clear 30 -1 28 -2 93 93 E 3 6 29.93 1014 10 16 0.00 0.00
6:56 am 06:56 Clear 30 -1 28 -2 93 93 E 3 6 29.94 1014 10 16 0.00 0.00
7:56 am 07:56 Sunny 30 -1 30 -1 100 100 Calm 29.95 1014 10 16 0.00 0.00
8:56 am 08:56 Sunny 34 1 30 -1 87 87 Calm 29.95 1014 10 16 0.00 0.00
9:56 am 09:56 Sunny 39 4 32 0 75 75 Calm 29.96 1014 10 16 0.00 0.00
10:56 am 10:56 Sunny 45 7 34 1 66 66 SE 3 6 29.95 1014 10 16 0.00 0.00
11:56 am 11:56 Sunny 48 9 34 1 58 58 Calm 29.92 1013 10 16 0.00 0.00
12:56 pm 12:56 Mostly Sunny 54 12 36 2 51 51 ESE 5 7 29.90 1012 10 16 0.00 0.00
1:56 pm 13:56 Sunny 55 13 36 2 47 47 SSE 3 6 29.88 1012 10 16 0.00 0.00
2:56 pm 14:56 Sunny 55 13 36 2 47 47 Calm 29.88 1012 10 16 0.00 0.00
3:56 pm 15:56 Mostly Cloudy 55 13 36 2 47 47 Calm 29.91 1013 10 16 0.00 0.00
4:56 pm 16:56 Mostly Cloudy 52 11 36 2 54 54 WNW 5 7 29.94 1014 10 16 0.00 0.00
5:56 pm 17:56 Mostly Cloudy 48 9 37 3 66 66 NW 5 7 29.99 1016 10 16 0.00 0.00
6:56 pm 18:56 Cloudy 46 8 37 3 71 71 NNW 9 15 30.03 1017 10 16 0.00 0.00
7:56 pm 19:56 Cloudy 43 6 34 1 71 71 NNW 12 19 30.06 1018 10 16 0.00 0.00
8:56 pm 20:56 Cloudy 39 4 32 0 75 75 NNW 16 26 30.10 1019 10 16 0.00 0.00
9:56 pm 21:56 Cloudy 37 3 32 0 81 81 NNW 13 20 30.15 1021 10 16 0.00 0.00
10:31 pm 22:31 Cloudy 37 3 30 -1 75 75 NW 14 22 30.18 1022 10 16 0.00 0.00
10:56 pm 22:56 Cloudy 37 3 30 -1 75 75 N 16 26 30.21 1023 10 16 0.00 0.00
11:56 pm 23:56 Cloudy 36 2 28 -2 75 75 N 14 22 30.25 1024 10 16 0.00 0.00

Powered by AerisWeather